Regional Weather Roundup
Issued by NWS

Home | Current Version | Previous Version | Graphics & Text | Print | Product List | Glossary On
Versions: 1 2 3 4 5 6 7 8 9 10 11 12 13 14 15 16 17 18 19 20 21 22 23 24 25 26 27 28 29 30 31 32 33 34 35 36 37 38 39 40 41 42 43 44 45 46 47 48 49 50
000
ASUS45 KSLC 200810
RWRUT

UTAH REGIONAL WEATHER ROUNDUP
NATIONAL WEATHER SERVICE SALT LAKE CITY UT
200 AM MDT WED AUG 20 2014

UTZ001>011-023>025-200900-

NORTHERN UTAH

CITY           SKY/WX    TMP DP  RH WIND       PRES   REMARKS
HILL AFB       CLOUDY    64  54  68 E12       29.93R
LOGAN          CLEAR     63  52  67 S7        29.91F
OGDEN          CLOUDY    65  53  65 S6        29.90S
PROVO AIRPORT  CLOUDY    64  54  68 S7        29.94R
SALT LAKE CITY LGT RAIN  67  60  78 SE8       29.89S
VERNAL         LGT RAIN  60  57  89 CALM      29.99S FOG
WENDOVER       CLOUDY    70  46  43 NE9       29.90R
HEBER CITY     CLOUDY    57  54  88 SE5       29.98S
WEST JORDAN    CLOUDY    70  61  73 CALM      29.93R

$$

UTZ012>022-026-027-200900-

SOUTHERN UTAH

CITY           SKY/WX    TMP DP  RH WIND       PRES   REMARKS
BRYCE CANYON   FOG       46  45  96 CALM      30.16S VSB 1/2
CEDAR CITY     CLOUDY    58  53  84 SE8       30.06F
MILFORD        MOCLDY    61  56  83 E3        29.98F
MOAB/CYNLANDS  CLOUDY    64  63  96 CALM      29.95S
PRICE          MOCLDY    61  57  87 E5        30.03R
ST GEORGE      CLOUDY    68  63  83 S7        29.93F

$$

REGIONAL REPORTS     COLORADO/ARIZONA

CITY           SKY/WX    TMP DP  RH WIND       PRES   REMARKS
CRAIG, CO      LGT RAIN  58  53  84 E5        30.04S
GRAND JUNCTION LGT RAIN  62  61  96 CALM      29.98S
RIFLE          CLOUDY    61  57  87 SE3       30.02S
MONTROSE       CLOUDY    62  58  86 E6        30.05F
CORTEZ         MOCLDY    59  58  96 E3        30.08S
PAGE, AZ       CLEAR     67  61  81 CALM      29.98S
GRAND CANYON     N/A    N/A N/A N/A MISG        N/A
KINGMAN        CLEAR     67  56  67 SE18      29.94R
FLAGSTAFF      MOCLDY    52  48  86 SW3       30.19S

$$

REGIONAL REPORTS    NEVADA/IDAHO/WYOMING

CITY           SKY/WX    TMP DP  RH WIND       PRES   REMARKS
LAS VEGAS, NV  PTCLDY    80  53  39 SE3       29.80R
ELY            CLOUDY    54  54 100 S6        30.06F
ELKO           MOCLDY    63  44  50 SW7       29.94S
POCATELLO, ID  CLEAR     57  55  93 NE3       29.90F
BURLEY         MOCLDY    59  51  75 E5        29.87S
EVANSTON, WY   CLOUDY    53  50  89 SE5       30.06S
ROCK SPRINGS   MOCLDY    54  49  83 SW7       30.03S

$$


USA.gov is the U.S. government's official web portal to all federal, state and local government web resources and services.